Weather in Knokke-Heist

Belgium     51°20′48″N   3°17′13″E
temp.,
°C
wind,
m/s
gust,
m/s
humid.,
%
clouds,
%
prec.,
mm/h
press.,
hPa
HPBL,
m
2 july, sat
sat223:00+13sw48740 0.0 1021171
02:00+11sw48850 0.0 1021154
05:00+10ssw348621 0.0 102171
08:00+14s35675 0.0 1021208
11:00+20ssw4647100 0.0 10211339
14:00+23sw574086 0.0 10192038
17:00+20wnw555588 0.0 1019536
20:00+19w4660100 0.0 1019428
3 july, sun
sun323:00+14wsw48723 0.0 1019139
02:00+13wsw3684100 0.0 1019117
05:00+12sw47935 0.0 1018142
08:00+15wsw577930 0.0 1019406
11:00+19wsw565710 0.0 10191409
14:00+20wnw665628 0.1 1019969
17:00+20wnw67541 0.0 1019886
20:00+18w57630 0.0 1019605
4 july, mon
mon423:00+14wsw48850 0.0 1020144
02:00+12sw47945 0.2 1020125
05:00+15nw358074 0.1 102094
08:00+17nw34665 0.1 1021506
11:00+19wnw455389 0.0 10211233
14:00+21wnw67505 0.0 10211234
17:00+21wnw56435 0.0 1021944
20:00+18w576199 0.0 1021498
5 july, tue
tue523:00+15wnw33855 0.0 102239
02:00+13sw23868 0.0 102332
05:00+15wnw237341 0.1 102387
08:00+17nnw55635 0.1 1024636
11:00+18nw55555 0.0 1025951
14:00+19nw665217 0.0 10261019
17:00+19nnw45480 0.0 1026916
20:00+17nne33540 0.0 1026474
6 july, wed
wed623:00+12ene22820 0.0 102719
02:00+11s11820 0.0 102715
05:00+11ssw22770 0.0 102620
08:00+15sw34600 0.0 1026199
11:00+20nw556619 0.0 1026885
14:00+20nw5663100 0.0 1026941
17:00+20nnw57604 0.0 10261011
20:00+19n46680 0.0 1026646